Year,Month,Day,Hour,Minute,Value (Times are PST for temperature in C)
2016,05,07,00,00,12.60
2016,05,07,00,01,12.60
2016,05,07,00,02,12.50
2016,05,07,00,03,12.50
2016,05,07,00,04,12.40
2016,05,07,00,05,12.40
2016,05,07,00,06,12.40
2016,05,07,00,07,12.40
2016,05,07,00,08,12.40
2016,05,07,00,09,12.40
2016,05,07,00,10,12.40
2016,05,07,00,11,12.40
2016,05,07,00,12,12.40
2016,05,07,00,13,12.30
2016,05,07,00,14,12.30
2016,05,07,00,15,12.30
2016,05,07,00,16,12.20
2016,05,07,00,17,12.20
2016,05,07,00,18,12.20
2016,05,07,00,19,12.10
2016,05,07,00,20,12.10
2016,05,07,00,21,12.00
2016,05,07,00,22,12.00
2016,05,07,00,23,11.90
2016,05,07,00,24,11.90
2016,05,07,00,25,11.90
2016,05,07,00,26,11.90
2016,05,07,00,27,11.80
2016,05,07,00,28,11.80
2016,05,07,00,29,11.80
2016,05,07,00,30,11.80
2016,05,07,00,31,11.80
2016,05,07,00,32,11.70
2016,05,07,00,33,11.70
2016,05,07,00,34,11.70
2016,05,07,00,35,11.60
2016,05,07,00,36,11.60
2016,05,07,00,37,11.60
2016,05,07,00,38,11.60
2016,05,07,00,39,11.50
2016,05,07,00,40,11.50
2016,05,07,00,41,11.50
2016,05,07,00,42,11.40
2016,05,07,00,43,11.40
2016,05,07,00,44,11.40
2016,05,07,00,45,11.40
2016,05,07,00,46,11.30
2016,05,07,00,47,11.30
2016,05,07,00,48,11.30
2016,05,07,00,49,11.30
2016,05,07,00,50,11.20
2016,05,07,00,51,11.20
2016,05,07,00,52,11.20
2016,05,07,00,53,11.20
2016,05,07,00,54,11.10
2016,05,07,00,55,11.10
2016,05,07,00,56,11.10
2016,05,07,00,57,11.10
2016,05,07,00,58,11.00
2016,05,07,00,59,11.00
2016,05,07,01,00,11.00
2016,05,07,01,01,10.90
2016,05,07,01,02,10.90
2016,05,07,01,03,10.90
2016,05,07,01,04,10.90
2016,05,07,01,05,10.80
2016,05,07,01,06,10.80
2016,05,07,01,07,10.80
2016,05,07,01,08,10.80
2016,05,07,01,09,10.80
2016,05,07,01,10,10.80
2016,05,07,01,11,10.70
2016,05,07,01,12,10.70
2016,05,07,01,13,10.60
2016,05,07,01,14,10.60
2016,05,07,01,15,10.60
2016,05,07,01,16,10.60
2016,05,07,01,17,10.50
2016,05,07,01,18,10.50
2016,05,07,01,19,10.40
2016,05,07,01,20,10.40
2016,05,07,01,21,10.40
2016,05,07,01,22,10.40
2016,05,07,01,23,10.30
2016,05,07,01,24,10.30
2016,05,07,01,25,10.30
2016,05,07,01,26,10.30
2016,05,07,01,27,10.20
2016,05,07,01,28,10.20
2016,05,07,01,29,10.20
2016,05,07,01,30,10.20
2016,05,07,01,31,10.20
2016,05,07,01,32,10.10
2016,05,07,01,33,10.10
2016,05,07,01,34,10.10
2016,05,07,01,35,10.00
2016,05,07,01,36,10.00
2016,05,07,01,37,9.90
2016,05,07,01,38,9.90
2016,05,07,01,39,9.90
2016,05,07,01,40,9.80
2016,05,07,01,41,9.80
2016,05,07,01,42,9.80
2016,05,07,01,43,9.80
2016,05,07,01,44,9.80
2016,05,07,01,45,9.80
2016,05,07,01,46,9.70
2016,05,07,01,47,9.70
2016,05,07,01,48,9.70
2016,05,07,01,49,9.70
2016,05,07,01,50,9.70
2016,05,07,01,51,9.60
2016,05,07,01,52,9.60
2016,05,07,01,53,9.60
2016,05,07,01,54,9.50
2016,05,07,01,55,9.50
2016,05,07,01,56,9.50
2016,05,07,01,57,9.40
2016,05,07,01,58,9.40
2016,05,07,01,59,9.40
2016,05,07,02,00,9.30
2016,05,07,02,01,9.30
2016,05,07,02,02,9.30
2016,05,07,02,03,9.30
2016,05,07,02,04,9.20
2016,05,07,02,05,9.20
2016,05,07,02,06,9.20
2016,05,07,02,07,9.20
2016,05,07,02,08,9.20
2016,05,07,02,09,9.10
2016,05,07,02,10,9.10
2016,05,07,02,11,9.10
2016,05,07,02,12,9.10
2016,05,07,02,13,9.00
2016,05,07,02,14,9.00
2016,05,07,02,15,9.00
2016,05,07,02,16,8.90
2016,05,07,02,17,8.90
2016,05,07,02,18,8.90
2016,05,07,02,19,8.90
2016,05,07,02,20,8.80
2016,05,07,02,21,8.80
2016,05,07,02,22,8.80
2016,05,07,02,23,8.80
2016,05,07,02,24,8.80
2016,05,07,02,25,8.80
2016,05,07,02,26,8.70
2016,05,07,02,27,8.70
2016,05,07,02,28,8.70
2016,05,07,02,29,8.70
2016,05,07,02,30,8.60
2016,05,07,02,31,8.60
2016,05,07,02,32,8.60
2016,05,07,02,33,8.60
2016,05,07,02,34,8.50
2016,05,07,02,35,8.50
2016,05,07,02,36,8.50
2016,05,07,02,37,8.50
2016,05,07,02,38,8.50
2016,05,07,02,39,8.40
2016,05,07,02,40,8.40
2016,05,07,02,41,8.40
2016,05,07,02,42,8.40
2016,05,07,02,43,8.40
2016,05,07,02,44,8.40
2016,05,07,02,45,8.40
2016,05,07,02,46,8.30
2016,05,07,02,47,8.30
2016,05,07,02,48,8.30
2016,05,07,02,49,8.30
2016,05,07,02,50,8.30
2016,05,07,02,51,8.30
2016,05,07,02,52,8.30
2016,05,07,02,53,8.30
2016,05,07,02,54,8.30
2016,05,07,02,55,8.30
2016,05,07,02,56,8.30
2016,05,07,02,57,8.30
2016,05,07,02,58,8.30
2016,05,07,02,59,8.30
2016,05,07,03,00,8.30
2016,05,07,03,01,8.30
2016,05,07,03,02,8.30
2016,05,07,03,03,8.30
2016,05,07,03,04,8.30
2016,05,07,03,05,8.20
2016,05,07,03,06,8.20
2016,05,07,03,07,8.20
2016,05,07,03,08,8.20
2016,05,07,03,09,8.20
2016,05,07,03,10,8.10
2016,05,07,03,11,8.10
2016,05,07,03,12,8.10
2016,05,07,03,13,8.10
2016,05,07,03,14,8.10
2016,05,07,03,15,8.10
2016,05,07,03,16,8.00
2016,05,07,03,17,8.00
2016,05,07,03,18,8.00
2016,05,07,03,19,8.00
2016,05,07,03,20,8.00
2016,05,07,03,21,7.90
2016,05,07,03,22,7.90
2016,05,07,03,23,7.90
2016,05,07,03,24,7.90
2016,05,07,03,25,7.90
2016,05,07,03,26,7.90
2016,05,07,03,27,7.90
2016,05,07,03,28,7.90
2016,05,07,03,29,7.80
2016,05,07,03,30,7.80
2016,05,07,03,31,7.80
2016,05,07,03,32,7.80
2016,05,07,03,33,7.80
2016,05,07,03,34,7.80
2016,05,07,03,35,7.80
2016,05,07,03,36,7.80
2016,05,07,03,37,7.70
2016,05,07,03,38,7.70
2016,05,07,03,39,7.70
2016,05,07,03,40,7.70
2016,05,07,03,41,7.70
2016,05,07,03,42,7.70
2016,05,07,03,43,7.70
2016,05,07,03,44,7.70
2016,05,07,03,45,7.70
2016,05,07,03,46,7.70
2016,05,07,03,47,7.70
2016,05,07,03,48,7.70
2016,05,07,03,49,7.70
2016,05,07,03,50,7.70
2016,05,07,03,51,7.70
2016,05,07,03,52,7.70
2016,05,07,03,53,7.70
2016,05,07,03,54,7.70
2016,05,07,03,55,7.70
2016,05,07,03,56,7.70
2016,05,07,03,57,7.70
2016,05,07,03,58,7.60
2016,05,07,03,59,7.60
2016,05,07,04,00,7.60
2016,05,07,04,01,7.60
2016,05,07,04,02,7.60
2016,05,07,04,03,7.60
2016,05,07,04,04,7.60
2016,05,07,04,05,7.50
2016,05,07,04,06,7.50
2016,05,07,04,07,7.50
2016,05,07,04,08,7.50
2016,05,07,04,09,7.50
2016,05,07,04,10,7.50
2016,05,07,04,11,7.40
2016,05,07,04,12,7.40
2016,05,07,04,13,7.40
2016,05,07,04,14,7.40
2016,05,07,04,15,7.40
2016,05,07,04,16,7.40
2016,05,07,04,17,7.40
2016,05,07,04,18,7.40
2016,05,07,04,19,7.40
2016,05,07,04,20,7.30
2016,05,07,04,21,7.30
2016,05,07,04,22,7.30
2016,05,07,04,23,7.30
2016,05,07,04,24,7.30
2016,05,07,04,25,7.30
2016,05,07,04,26,7.30
2016,05,07,04,27,7.30
2016,05,07,04,28,7.30
2016,05,07,04,29,7.20
2016,05,07,04,30,7.20
2016,05,07,04,31,7.20
2016,05,07,04,32,7.20
2016,05,07,04,33,7.20
2016,05,07,04,34,7.20
2016,05,07,04,35,7.10
2016,05,07,04,36,7.10
2016,05,07,04,37,7.10
2016,05,07,04,38,7.10
2016,05,07,04,39,7.10
2016,05,07,04,40,7.10
2016,05,07,04,41,7.10
2016,05,07,04,42,7.10
2016,05,07,04,43,7.10
2016,05,07,04,44,7.10
2016,05,07,04,45,7.10
2016,05,07,04,46,7.10
2016,05,07,04,47,7.00
2016,05,07,04,48,7.00
2016,05,07,04,49,7.00
2016,05,07,04,50,7.00
2016,05,07,04,51,7.00
2016,05,07,04,52,6.90
2016,05,07,04,53,6.90
2016,05,07,04,54,6.90
2016,05,07,04,55,6.90
2016,05,07,04,56,6.90
2016,05,07,04,57,6.90
2016,05,07,04,58,6.90
2016,05,07,04,59,6.90
2016,05,07,05,00,6.90
2016,05,07,05,01,6.80
2016,05,07,05,02,6.80
2016,05,07,05,03,6.80
2016,05,07,05,04,6.80
2016,05,07,05,05,6.80
2016,05,07,05,06,6.80
2016,05,07,05,07,6.80
2016,05,07,05,08,6.80
2016,05,07,05,09,6.80
2016,05,07,05,10,6.70
2016,05,07,05,11,6.70
2016,05,07,05,12,6.70
2016,05,07,05,13,6.70
2016,05,07,05,14,6.70
2016,05,07,05,15,6.70
2016,05,07,05,16,6.70
2016,05,07,05,17,6.70
2016,05,07,05,18,6.60
2016,05,07,05,19,6.60
2016,05,07,05,20,6.60
2016,05,07,05,21,6.60
2016,05,07,05,22,6.60
2016,05,07,05,23,6.60
2016,05,07,05,24,6.60
2016,05,07,05,25,6.60
2016,05,07,05,26,6.60
2016,05,07,05,27,6.60
2016,05,07,05,28,6.60
2016,05,07,05,29,6.60
2016,05,07,05,30,6.50
2016,05,07,05,31,6.50
2016,05,07,05,32,6.50
2016,05,07,05,33,6.50
2016,05,07,05,34,6.50
2016,05,07,05,35,6.50
2016,05,07,05,36,6.50
2016,05,07,05,37,6.40
2016,05,07,05,38,6.40
2016,05,07,05,39,6.40
2016,05,07,05,40,6.40
2016,05,07,05,41,6.40
2016,05,07,05,42,6.40
2016,05,07,05,43,6.40
2016,05,07,05,44,6.30
2016,05,07,05,45,6.30
2016,05,07,05,46,6.30
2016,05,07,05,47,6.30
2016,05,07,05,48,6.30
2016,05,07,05,49,6.30
2016,05,07,05,50,6.30
2016,05,07,05,51,6.30
2016,05,07,05,52,6.30
2016,05,07,05,53,6.20
2016,05,07,05,54,6.20
2016,05,07,05,55,6.20
2016,05,07,05,56,6.20
2016,05,07,05,57,6.20
2016,05,07,05,58,6.20
2016,05,07,05,59,6.20
2016,05,07,06,00,6.20
2016,05,07,06,01,6.20
2016,05,07,06,02,6.20
2016,05,07,06,03,6.20
2016,05,07,06,04,6.20
2016,05,07,06,05,6.20
2016,05,07,06,06,6.20
2016,05,07,06,07,6.20
2016,05,07,06,08,6.20
2016,05,07,06,09,6.20
2016,05,07,06,10,6.20
2016,05,07,06,11,6.20
2016,05,07,06,12,6.10
2016,05,07,06,13,6.10
2016,05,07,06,14,6.10
2016,05,07,06,15,6.10
2016,05,07,06,16,6.10
2016,05,07,06,17,6.10
2016,05,07,06,18,6.10
2016,05,07,06,19,6.20
2016,05,07,06,20,6.20
2016,05,07,06,21,6.20
2016,05,07,06,22,6.20
2016,05,07,06,23,6.20
2016,05,07,06,24,6.20
2016,05,07,06,25,6.20
2016,05,07,06,26,6.20
2016,05,07,06,27,6.20
2016,05,07,06,28,6.20
2016,05,07,06,29,6.20
2016,05,07,06,30,6.20
2016,05,07,06,31,6.20
2016,05,07,06,32,6.20
2016,05,07,06,33,6.20
2016,05,07,06,34,6.20
2016,05,07,06,35,6.20
2016,05,07,06,36,6.20
2016,05,07,06,37,6.30
2016,05,07,06,38,6.30
2016,05,07,06,39,6.30
2016,05,07,06,40,6.30
2016,05,07,06,41,6.40
2016,05,07,06,42,6.40
2016,05,07,06,43,6.40
2016,05,07,06,44,6.40
2016,05,07,06,45,6.40
2016,05,07,06,46,6.40
2016,05,07,06,47,6.40
2016,05,07,06,48,6.40
2016,05,07,06,49,6.40
2016,05,07,06,50,6.40
2016,05,07,06,51,6.40
2016,05,07,06,52,6.40
2016,05,07,06,53,6.40
2016,05,07,06,54,6.50
2016,05,07,06,55,6.50
2016,05,07,06,56,6.50
2016,05,07,06,57,6.50
2016,05,07,06,58,6.50
2016,05,07,06,59,6.60
2016,05,07,07,00,6.60
2016,05,07,07,01,6.60
2016,05,07,07,02,6.60
2016,05,07,07,03,6.60
2016,05,07,07,04,6.70
2016,05,07,07,05,6.70
2016,05,07,07,06,6.70
2016,05,07,07,07,6.70
2016,05,07,07,08,6.70
2016,05,07,07,09,6.80
2016,05,07,07,10,6.80
2016,05,07,07,11,6.80
2016,05,07,07,12,6.80
2016,05,07,07,13,6.80
2016,05,07,07,14,6.80
2016,05,07,07,15,6.90
2016,05,07,07,16,6.90
2016,05,07,07,17,6.90
2016,05,07,07,18,7.00
2016,05,07,07,19,7.00
2016,05,07,07,20,7.10
2016,05,07,07,21,7.10
2016,05,07,07,22,7.20
2016,05,07,07,23,7.20
2016,05,07,07,24,7.30
2016,05,07,07,25,7.30
2016,05,07,07,26,7.30
2016,05,07,07,27,7.40
2016,05,07,07,28,7.40
2016,05,07,07,29,7.50
2016,05,07,07,30,7.50
2016,05,07,07,31,7.60
2016,05,07,07,32,7.60
2016,05,07,07,33,7.60
2016,05,07,07,34,7.70
2016,05,07,07,35,7.70
2016,05,07,07,36,7.70
2016,05,07,07,37,7.70
2016,05,07,07,38,7.80
2016,05,07,07,39,7.80
2016,05,07,07,40,7.90
2016,05,07,07,41,8.00
2016,05,07,07,42,8.10
2016,05,07,07,43,8.20
2016,05,07,07,44,8.20
2016,05,07,07,45,8.30
2016,05,07,07,46,8.40
2016,05,07,07,47,8.50
2016,05,07,07,48,8.60
2016,05,07,07,49,8.60
2016,05,07,07,50,8.70
2016,05,07,07,51,8.70
2016,05,07,07,52,8.80
2016,05,07,07,53,8.90
2016,05,07,07,54,9.10
2016,05,07,07,55,9.20
2016,05,07,07,56,9.40
2016,05,07,07,57,9.50
2016,05,07,07,58,9.60
2016,05,07,07,59,9.70
2016,05,07,08,00,9.80
2016,05,07,08,01,9.80
2016,05,07,08,02,9.90
2016,05,07,08,03,9.90
2016,05,07,08,04,10.00
2016,05,07,08,05,10.10
2016,05,07,08,06,10.10
2016,05,07,08,07,10.20
2016,05,07,08,08,10.30
2016,05,07,08,09,10.30
2016,05,07,08,10,10.30
2016,05,07,08,11,10.30
2016,05,07,08,12,10.40
2016,05,07,08,13,10.40
2016,05,07,08,14,10.40
2016,05,07,08,15,10.40
2016,05,07,08,16,10.40
2016,05,07,08,17,10.40
2016,05,07,08,18,10.40
2016,05,07,08,19,10.40
2016,05,07,08,20,10.40
2016,05,07,08,21,10.40
2016,05,07,08,22,10.40
2016,05,07,08,23,10.40
2016,05,07,08,24,10.50
2016,05,07,08,25,10.50
2016,05,07,08,26,10.60
2016,05,07,08,27,10.70
2016,05,07,08,28,10.70
2016,05,07,08,29,10.80
2016,05,07,08,30,10.90
2016,05,07,08,31,11.00
2016,05,07,08,32,11.00
2016,05,07,08,33,11.10
2016,05,07,08,34,11.10
2016,05,07,08,35,11.20
2016,05,07,08,36,11.20
2016,05,07,08,37,11.30
2016,05,07,08,38,11.30
2016,05,07,08,39,11.40
2016,05,07,08,40,11.50
2016,05,07,08,41,11.50
2016,05,07,08,42,11.60
2016,05,07,08,43,11.70
2016,05,07,08,44,11.70
2016,05,07,08,45,11.80
2016,05,07,08,46,11.80
2016,05,07,08,47,11.90
2016,05,07,08,48,11.90
2016,05,07,08,49,12.00
2016,05,07,08,50,12.10
2016,05,07,08,51,12.10
2016,05,07,08,52,12.20
2016,05,07,08,53,12.20
2016,05,07,08,54,12.20
2016,05,07,08,55,12.20
2016,05,07,08,56,12.20
2016,05,07,08,57,12.30
2016,05,07,08,58,12.30
2016,05,07,08,59,12.40
2016,05,07,09,00,12.40
2016,05,07,09,01,12.50
2016,05,07,09,02,12.60
2016,05,07,09,03,12.60
2016,05,07,09,04,12.70
2016,05,07,09,05,12.70
2016,05,07,09,06,12.70
2016,05,07,09,07,12.70
2016,05,07,09,08,12.70
2016,05,07,09,09,12.70
2016,05,07,09,10,12.80
2016,05,07,09,11,12.80
2016,05,07,09,12,12.90
2016,05,07,09,13,13.00
2016,05,07,09,14,13.10
2016,05,07,09,15,13.10
2016,05,07,09,16,13.20
2016,05,07,09,17,13.30
2016,05,07,09,18,13.30
2016,05,07,09,19,13.30
2016,05,07,09,20,13.40
2016,05,07,09,21,13.50
2016,05,07,09,22,13.60
2016,05,07,09,23,13.70
2016,05,07,09,24,13.70
2016,05,07,09,25,13.80
2016,05,07,09,26,13.80
2016,05,07,09,27,13.80
2016,05,07,09,28,13.90
2016,05,07,09,29,13.90
2016,05,07,09,30,14.00
2016,05,07,09,31,14.00
2016,05,07,09,32,14.10
2016,05,07,09,33,14.10
2016,05,07,09,34,14.20
2016,05,07,09,35,14.20
2016,05,07,09,36,14.20
2016,05,07,09,37,14.30
2016,05,07,09,38,14.30
2016,05,07,09,39,14.30
2016,05,07,09,40,14.40
2016,05,07,09,41,14.40
2016,05,07,09,42,14.40
2016,05,07,09,43,14.40
2016,05,07,09,44,14.50
2016,05,07,09,45,14.50
2016,05,07,09,46,14.50
2016,05,07,09,47,14.60
2016,05,07,09,48,14.60
2016,05,07,09,49,14.70
2016,05,07,09,50,14.70
2016,05,07,09,51,14.80
2016,05,07,09,52,14.80
2016,05,07,09,53,14.80
2016,05,07,09,54,14.90
2016,05,07,09,55,14.90
2016,05,07,09,56,15.00
2016,05,07,09,57,15.10
2016,05,07,09,58,15.20
2016,05,07,09,59,15.20
2016,05,07,10,00,15.30
2016,05,07,10,01,15.40
2016,05,07,10,02,15.40
2016,05,07,10,03,15.50
2016,05,07,10,04,15.50
2016,05,07,10,05,15.60
2016,05,07,10,06,15.70
2016,05,07,10,07,15.80
2016,05,07,10,08,15.90
2016,05,07,10,09,15.90
2016,05,07,10,10,16.00
2016,05,07,10,11,16.10
2016,05,07,10,12,16.20
2016,05,07,10,13,16.40
2016,05,07,10,14,16.50
2016,05,07,10,15,16.60
2016,05,07,10,16,16.70
2016,05,07,10,17,16.80
2016,05,07,10,18,16.80
2016,05,07,10,19,16.90
2016,05,07,10,20,16.90
2016,05,07,10,21,16.90
2016,05,07,10,22,16.90
2016,05,07,10,23,16.90
2016,05,07,10,24,16.90
2016,05,07,10,25,16.80
2016,05,07,10,26,16.80
2016,05,07,10,27,16.90
2016,05,07,10,28,16.90
2016,05,07,10,29,16.90
2016,05,07,10,30,16.90
2016,05,07,10,31,16.90
2016,05,07,10,32,16.90
2016,05,07,10,33,16.90
2016,05,07,10,34,17.00
2016,05,07,10,35,17.10
2016,05,07,10,36,17.10
2016,05,07,10,37,17.10
2016,05,07,10,38,17.10
2016,05,07,10,39,17.20
2016,05,07,10,40,17.20
2016,05,07,10,41,17.30
2016,05,07,10,42,17.40
2016,05,07,10,43,17.50
2016,05,07,10,44,17.60
2016,05,07,10,45,17.60
2016,05,07,10,46,17.70
2016,05,07,10,47,17.80
2016,05,07,10,48,17.90
2016,05,07,10,49,17.90
2016,05,07,10,50,18.00
2016,05,07,10,51,18.10
2016,05,07,10,52,18.20
2016,05,07,10,53,18.20
2016,05,07,10,54,18.20
2016,05,07,10,55,18.20
2016,05,07,10,56,18.10
2016,05,07,10,57,18.10
2016,05,07,10,58,18.10
2016,05,07,10,59,18.10
2016,05,07,11,00,18.10
2016,05,07,11,01,18.10
2016,05,07,11,02,18.20
2016,05,07,11,03,18.20
2016,05,07,11,04,18.30
2016,05,07,11,05,18.40
2016,05,07,11,06,18.50
2016,05,07,11,07,18.60
2016,05,07,11,08,18.70
2016,05,07,11,09,18.80
2016,05,07,11,10,18.80
2016,05,07,11,11,18.80
2016,05,07,11,12,18.80
2016,05,07,11,13,18.80
2016,05,07,11,14,18.80
2016,05,07,11,15,18.80
2016,05,07,11,16,18.90
2016,05,07,11,17,19.00
2016,05,07,11,18,19.00
2016,05,07,11,19,19.10
2016,05,07,11,20,19.20
2016,05,07,11,21,19.30
2016,05,07,11,22,19.40
2016,05,07,11,23,19.50
2016,05,07,11,24,19.60
2016,05,07,11,25,19.70
2016,05,07,11,26,19.70
2016,05,07,11,27,19.70
2016,05,07,11,28,19.70
2016,05,07,11,29,19.70
2016,05,07,11,30,19.70
2016,05,07,11,31,19.80
2016,05,07,11,32,19.80
2016,05,07,11,33,19.80
2016,05,07,11,34,19.90
2016,05,07,11,35,20.00
2016,05,07,11,36,20.10
2016,05,07,11,37,20.10
2016,05,07,11,38,20.20
2016,05,07,11,39,20.30
2016,05,07,11,40,20.30
2016,05,07,11,41,20.40
2016,05,07,11,42,20.40
2016,05,07,11,43,20.40
2016,05,07,11,44,20.40
2016,05,07,11,45,20.40
2016,05,07,11,46,20.50
2016,05,07,11,47,20.60
2016,05,07,11,48,20.70
2016,05,07,11,49,20.70
2016,05,07,11,50,20.70
2016,05,07,11,51,20.70
2016,05,07,11,52,20.70
2016,05,07,11,53,20.80
2016,05,07,11,54,20.80
2016,05,07,11,55,20.90
2016,05,07,11,56,21.10
2016,05,07,11,57,21.10
2016,05,07,11,58,21.20
2016,05,07,11,59,21.20
2016,05,07,12,00,21.20
2016,05,07,12,01,21.30
2016,05,07,12,02,21.40
2016,05,07,12,03,21.50
2016,05,07,12,04,21.60
2016,05,07,12,05,21.60
2016,05,07,12,06,21.70
2016,05,07,12,07,21.70
2016,05,07,12,08,21.80
2016,05,07,12,09,21.80
2016,05,07,12,10,21.90
2016,05,07,12,11,22.00
2016,05,07,12,12,22.10
2016,05,07,12,13,22.10
2016,05,07,12,14,22.10
2016,05,07,12,15,22.10
2016,05,07,12,16,22.10
2016,05,07,12,17,22.00
2016,05,07,12,18,22.00
2016,05,07,12,19,22.10
2016,05,07,12,20,22.20
2016,05,07,12,21,22.30
2016,05,07,12,22,22.30
2016,05,07,12,23,22.30
2016,05,07,12,24,22.30
2016,05,07,12,25,22.30
2016,05,07,12,26,22.30
2016,05,07,12,27,22.20
2016,05,07,12,28,22.20
2016,05,07,12,29,22.20
2016,05,07,12,30,22.30
2016,05,07,12,31,22.30
2016,05,07,12,32,22.30
2016,05,07,12,33,22.30
2016,05,07,12,34,22.30
2016,05,07,12,35,22.40
2016,05,07,12,36,22.40
2016,05,07,12,37,22.40
2016,05,07,12,38,22.40
2016,05,07,12,39,22.40
2016,05,07,12,40,22.40
2016,05,07,12,41,22.40
2016,05,07,12,42,22.50
2016,05,07,12,43,22.50
2016,05,07,12,44,22.70
2016,05,07,12,45,22.80
2016,05,07,12,46,22.80
2016,05,07,12,47,22.90
2016,05,07,12,48,22.90
2016,05,07,12,49,22.90
2016,05,07,12,50,22.90
2016,05,07,12,51,22.90
2016,05,07,12,52,22.90
2016,05,07,12,53,22.90
2016,05,07,12,54,22.90
2016,05,07,12,55,22.90
2016,05,07,12,56,22.90
2016,05,07,12,57,23.00
2016,05,07,12,58,23.10
2016,05,07,12,59,23.20
2016,05,07,13,00,23.30
2016,05,07,13,01,23.30
2016,05,07,13,02,23.40
2016,05,07,13,03,23.40
2016,05,07,13,04,23.40
2016,05,07,13,05,23.40
2016,05,07,13,06,23.50
2016,05,07,13,07,23.50
2016,05,07,13,08,23.60
2016,05,07,13,09,23.70
2016,05,07,13,10,23.80
2016,05,07,13,11,23.80
2016,05,07,13,12,23.80
2016,05,07,13,13,23.90
2016,05,07,13,14,24.00
2016,05,07,13,15,24.00
2016,05,07,13,16,24.00
2016,05,07,13,17,23.90
2016,05,07,13,18,23.80
2016,05,07,13,19,23.80
2016,05,07,13,20,23.80
2016,05,07,13,21,23.80
2016,05,07,13,22,23.70
2016,05,07,13,23,23.70
2016,05,07,13,24,23.70
2016,05,07,13,25,23.70
2016,05,07,13,26,23.70
2016,05,07,13,27,23.80
2016,05,07,13,28,23.80
2016,05,07,13,29,23.90
2016,05,07,13,30,24.00
2016,05,07,13,31,24.10
2016,05,07,13,32,24.10
2016,05,07,13,33,24.10
2016,05,07,13,34,24.00
2016,05,07,13,35,24.10
2016,05,07,13,36,24.10
2016,05,07,13,37,24.10
2016,05,07,13,38,24.10
2016,05,07,13,39,24.20
2016,05,07,13,40,24.30
2016,05,07,13,41,24.30
2016,05,07,13,42,24.30
2016,05,07,13,43,24.30
2016,05,07,13,44,24.20
2016,05,07,13,45,24.20
2016,05,07,13,46,24.20
2016,05,07,13,47,24.20
2016,05,07,13,48,24.20
2016,05,07,13,49,24.30
2016,05,07,13,50,24.30
2016,05,07,13,51,24.40
2016,05,07,13,52,24.40
2016,05,07,13,53,24.50
2016,05,07,13,54,24.60
2016,05,07,13,55,24.60
2016,05,07,13,56,24.60
2016,05,07,13,57,24.50
2016,05,07,13,58,24.50
2016,05,07,13,59,24.40
2016,05,07,14,00,24.40
2016,05,07,14,01,24.40
2016,05,07,14,02,24.40
2016,05,07,14,03,24.30
2016,05,07,14,04,24.30
2016,05,07,14,05,24.40
2016,05,07,14,06,24.40
2016,05,07,14,07,24.50
2016,05,07,14,08,24.50
2016,05,07,14,09,24.50
2016,05,07,14,10,24.50
2016,05,07,14,11,24.60
2016,05,07,14,12,24.60
2016,05,07,14,13,24.70
2016,05,07,14,14,24.70
2016,05,07,14,15,24.80
2016,05,07,14,16,24.80
2016,05,07,14,17,24.80
2016,05,07,14,18,24.70
2016,05,07,14,19,24.60
2016,05,07,14,20,24.60
2016,05,07,14,21,24.60
2016,05,07,14,22,24.70
2016,05,07,14,23,24.70
2016,05,07,14,24,24.60
2016,05,07,14,25,24.50
2016,05,07,14,26,24.40
2016,05,07,14,27,24.40
2016,05,07,14,28,24.30
2016,05,07,14,29,24.30
2016,05,07,14,30,24.20
2016,05,07,14,31,24.30
2016,05,07,14,32,24.30
2016,05,07,14,33,24.30
2016,05,07,14,34,24.40
2016,05,07,14,35,24.40
2016,05,07,14,36,24.40
2016,05,07,14,37,24.30
2016,05,07,14,38,24.20
2016,05,07,14,39,24.10
2016,05,07,14,40,24.10
2016,05,07,14,41,24.00
2016,05,07,14,42,24.00
2016,05,07,14,43,24.00
2016,05,07,14,44,23.90
2016,05,07,14,45,23.90
2016,05,07,14,46,23.90
2016,05,07,14,47,24.00
2016,05,07,14,48,24.10
2016,05,07,14,49,24.10
2016,05,07,14,50,24.10
2016,05,07,14,51,24.10
2016,05,07,14,52,24.10
2016,05,07,14,53,24.00
2016,05,07,14,54,23.90
2016,05,07,14,55,23.90
2016,05,07,14,56,23.90
2016,05,07,14,57,23.90
2016,05,07,14,58,23.90
2016,05,07,14,59,24.00
2016,05,07,15,00,24.00
2016,05,07,15,01,24.10
2016,05,07,15,02,24.20
2016,05,07,15,03,24.20
2016,05,07,15,04,24.20
2016,05,07,15,05,24.10
2016,05,07,15,06,24.10
2016,05,07,15,07,24.10
2016,05,07,15,08,24.10
2016,05,07,15,09,24.20
2016,05,07,15,10,24.20
2016,05,07,15,11,24.20
2016,05,07,15,12,24.20
2016,05,07,15,13,24.10
2016,05,07,15,14,24.00
2016,05,07,15,15,24.00
2016,05,07,15,16,23.90
2016,05,07,15,17,23.90
2016,05,07,15,18,23.90
2016,05,07,15,19,23.80
2016,05,07,15,20,23.80
2016,05,07,15,21,23.70
2016,05,07,15,22,23.70
2016,05,07,15,23,23.80
2016,05,07,15,24,23.80
2016,05,07,15,25,23.80
2016,05,07,15,26,23.80
2016,05,07,15,27,23.90
2016,05,07,15,28,23.90
2016,05,07,15,29,23.90
2016,05,07,15,30,23.90
2016,05,07,15,31,23.90
2016,05,07,15,32,23.80
2016,05,07,15,33,23.80
2016,05,07,15,34,23.80
2016,05,07,15,35,23.80
2016,05,07,15,36,23.90
2016,05,07,15,37,24.00
2016,05,07,15,38,24.00
2016,05,07,15,39,24.00
2016,05,07,15,40,24.00
2016,05,07,15,41,23.90
2016,05,07,15,42,23.90
2016,05,07,15,43,23.80
2016,05,07,15,44,23.80
2016,05,07,15,45,23.80
2016,05,07,15,46,23.80
2016,05,07,15,47,23.70
2016,05,07,15,48,23.70
2016,05,07,15,49,23.70
2016,05,07,15,50,23.70
2016,05,07,15,51,23.60
2016,05,07,15,52,23.60
2016,05,07,15,53,23.50
2016,05,07,15,54,23.50
2016,05,07,15,55,23.40
2016,05,07,15,56,23.40
2016,05,07,15,57,23.40
2016,05,07,15,58,23.40
2016,05,07,15,59,23.40
2016,05,07,16,00,23.40
2016,05,07,16,01,23.40
2016,05,07,16,02,23.50
2016,05,07,16,03,23.50
2016,05,07,16,04,23.60
2016,05,07,16,05,23.70
2016,05,07,16,06,23.70
2016,05,07,16,07,23.70
2016,05,07,16,08,23.60
2016,05,07,16,09,23.50
2016,05,07,16,10,23.40
2016,05,07,16,11,23.30
2016,05,07,16,12,23.20
2016,05,07,16,13,23.20
2016,05,07,16,14,23.10
2016,05,07,16,15,23.00
2016,05,07,16,16,22.90
2016,05,07,16,17,22.80
2016,05,07,16,18,22.80
2016,05,07,16,19,22.70
2016,05,07,16,20,22.60
2016,05,07,16,21,22.60
2016,05,07,16,22,22.50
2016,05,07,16,23,22.40
2016,05,07,16,24,22.40
2016,05,07,16,25,22.40
2016,05,07,16,26,22.40
2016,05,07,16,27,22.30
2016,05,07,16,28,22.30
2016,05,07,16,29,22.30
2016,05,07,16,30,22.30
2016,05,07,16,31,22.20
2016,05,07,16,32,22.20
2016,05,07,16,33,22.10
2016,05,07,16,34,22.00
2016,05,07,16,35,21.90
2016,05,07,16,36,21.80
2016,05,07,16,37,21.70
2016,05,07,16,38,21.60
2016,05,07,16,39,21.60
2016,05,07,16,40,21.50
2016,05,07,16,41,21.50
2016,05,07,16,42,21.50
2016,05,07,16,43,21.40
2016,05,07,16,44,21.40
2016,05,07,16,45,21.30
2016,05,07,16,46,21.30
2016,05,07,16,47,21.20
2016,05,07,16,48,21.20
2016,05,07,16,49,21.20
2016,05,07,16,50,21.20
2016,05,07,16,51,21.10
2016,05,07,16,52,21.10
2016,05,07,16,53,21.00
2016,05,07,16,54,20.90
2016,05,07,16,55,20.90
2016,05,07,16,56,20.90
2016,05,07,16,57,20.90
2016,05,07,16,58,20.80
2016,05,07,16,59,20.80
2016,05,07,17,00,20.80
2016,05,07,17,01,20.80
2016,05,07,17,02,20.70
2016,05,07,17,03,20.70
2016,05,07,17,04,20.70
2016,05,07,17,05,20.70
2016,05,07,17,06,20.60
2016,05,07,17,07,20.60
2016,05,07,17,08,20.70
2016,05,07,17,09,20.70
2016,05,07,17,10,20.70
2016,05,07,17,11,20.60
2016,05,07,17,12,20.60
2016,05,07,17,13,20.60
2016,05,07,17,14,20.60
2016,05,07,17,15,20.60
2016,05,07,17,16,20.70
2016,05,07,17,17,20.70
2016,05,07,17,18,20.80
2016,05,07,17,19,20.80
2016,05,07,17,20,20.90
2016,05,07,17,21,21.00
2016,05,07,17,22,21.10
2016,05,07,17,23,21.10
2016,05,07,17,24,21.10
2016,05,07,17,25,21.10
2016,05,07,17,26,21.10
2016,05,07,17,27,21.10
2016,05,07,17,28,21.20
2016,05,07,17,29,21.20
2016,05,07,17,30,21.20
2016,05,07,17,31,21.10
2016,05,07,17,32,21.10
2016,05,07,17,33,21.10
2016,05,07,17,34,21.10
2016,05,07,17,35,21.10
2016,05,07,17,36,21.10